AirNav   ATP
 
 1492 users online  

6WI0 Cub Acres Airport
Prairie Farm, Wisconsin, USA

GOING TO PRAIRIE FARM?


FAA INFORMATION EFFECTIVE 07 DECEMBER 2017

Location

FAA Identifier: 6WI0
Lat/Long: 45-10-49.8630N / 091-59-15.6440W
45-10.831050N / 091-59.260733W
45.1805175 / -91.9876789
(estimated)
Elevation: 1000 ft. / 305 m (estimated)
Variation: 02E (1985)
From city: 3 miles S of PRAIRIE FARM, WI
Time zone: UTC -6 (UTC -5 during Daylight Saving Time)
Zip code: 54763

Airport Operations

Airport use: Private use. Permission required prior to landing
Activation date: 01/1977
Control tower: no
ARTCC: MINNEAPOLIS CENTER
FSS: GREEN BAY FLIGHT SERVICE STATION
Attendance: UNATNDD
Wind indicator: yes
Segmented circle: no

Airport Communications

WX AWOS-3P at Y23 (17 nm NE): 119.05 (715-924-1836)
WX AWOS-3 at RPD (17 nm NE): 120.525 (715-458-4481)
WX AWOS-3 at LUM (18 nm S): 118.025 (715-235-5342)
WX AWOS-3PT at UBE (20 nm N): 119.175 (715-822-3452)

Nearby radio navigation aids

VOR radial/distance  VOR name  Freq  Var
EAUr304/27.5EAU CLAIRE VORTAC112.9004E

 
NDB name  Hdg/Dist  Freq  Var  ID
WICKR222/11.422101ERP .-. .--.

Airport Services

Runway Information

Runway 18/36

Dimensions: 2000 x 110 ft. / 610 x 34 m
Surface: turf
RUNWAY 18  RUNWAY 36
Traffic pattern: rightleft
Obstructions: nonetrees, 700 ft. from runway

Airport Ownership and Management from official FAA records

Ownership: Privately-owned
Owner: JAMES B. HOOVER
2 RIVER RD
RIDGELAND, WI 54763
Manager: JAMES B. HOOVER
2 RIVER RD
RIDGELAND, WI 54763
Phone 715-455-1744

Airport Operational Statistics

Aircraft based on the field: 1
Single engine airplanes: 1
    

Instrument Procedures

There are no published instrument procedures at 6WI0.

Some nearby airports with instrument procedures:

3T3 - Boyceville Municipal Airport (8 nm S)
Y23 - Chetek Municipal-Southworth Airport (17 nm NE)
KRPD - Rice Lake Regional Airport - Carl's Field (17 nm NE)
KAHH - Amery Municipal Airport (17 nm W)
KLUM - Menomonie Municipal Airport-Score Field (18 nm S)
KUBE - Cumberland Municipal Airport (20 nm N)
 
Loc | Ops | Rwys | IFR | FBO | Links
Com | Nav | Svcs | Stats | Notes


 
Area around 6WI0 (Cub Acres Airport)
 
Road maps at: MapQuest Bing Google
 
Aerial photo
WARNING: Photo may not be current or correct
Aerial photo of 6WI0 (Cub Acres Airport)
Photo by Dr. Dan Johnson
Photo taken 03-Oct-2010
looking northwest.

Do you have a better or more recent aerial photo of Cub Acres Airport that you would like to share? If so, please send us your photo.

 
Sectional chart

 
Airport distance calculator
Flying to Cub Acres Airport? Find the distance to fly.

From to 6WI0

Sunrise and sunset
Times for 11-Dec-2017
 Local
(UTC-6)
 Zulu
(UTC)
Morning civil twilight07:0413:04
Sunrise07:3813:38
Sunset16:2522:25
Evening civil twilight16:5822:58

Current date and time
Zulu (UTC)  11-Dec-2017 21:17:30
Local (UTC-6)  11-Dec-2017 15:17:30
 
METAR
KY23 
17nm NE 
112055Z AUTO 35006KT 320V020 OVC016 M01/M04 A2985 RMK AO2 T10151041 PWINO
KLUM 
18nm S 
112055Z AUTO 32012G19KT 10SM OVC019 00/M03 A2985 RMK AO2 T00001033
KUBE 
20nm N 
112055Z AUTO 34018G24KT 10SM OVC014 M02/M05 A2986 RMK AO2
KRPD 
21nm NE 
112055Z AUTO 33015G23KT 10SM OVC015 M01/M04 A2987 RMK AO2 T10121041
KRNH 
23nm W 
112055Z AUTO 34014G25KT 10SM OVC019 00/M04 A2990 RMK AO2 T10051041
KEAU 
29nm SE 
112056Z 34013G21KT 8SM OVC019 M01/M04 A2983 RMK AO2 SLP115 60000 T10061044 53029
KOEO 
30nm W 
112055Z AUTO 33014G21KT 10SM BKN020 OVC028 00/M04 A2994 RMK AO2 60001 T00001038
TAF
KRNH 
23nm W 
111720Z 1118/1218 33011KT 6SM BR VCSH SCT007 OVC012 TEMPO 1118/1120 3SM -SHSN BR BKN007 OVC015 FM112000 33015G25KT P6SM SCT007 OVC015 FM120200 32015G26KT P6SM SCT020 FM120600 31009KT P6SM SKC FM121600 30005KT P6SM BKN100
NOTAMs
Click for the latest NOTAMs
NOTAMs are issued by the DoD/FAA and will open in a separate window not controlled by AirNav.

 

 
 

Would you like to see your business listed on this page?

 If your business provides an interesting product or service to pilots, flight crews, aircraft, or users of the Cub Acres Airport, you should consider listing it here.  To start the listing process, click on the button below
 
Add a business
 

Other Pages about Cub Acres Airport

Update a link
 
Copyright © AirNav, LLC. All rights reserved. Privacy Policy  Contact